Time,TemperatureF,DewpointF,PressureIn,WindDirection,WindDirectionDegrees,WindSpeedMPH,WindSpeedGustMPH,Humidity,HourlyPrecipIn,Conditions,Clouds,dailyrainin,SoftwareType,DateUTC
2013-06-20 00:01:00,50.5,50.0,30.22,North,0,0.0,-999.0,98,-99.99,,,0.00,Acu-Link.com,2013-06-20 04:01:00,
2013-06-20 00:16:00,50.4,46.3,30.23,North,0,0.0,-999.0,86,-99.99,,,0.00,Acu-Link.com,2013-06-20 04:16:00,
2013-06-20 00:32:00,49.8,49.3,30.23,North,0,0.0,-999.0,98,-99.99,,,0.00,Acu-Link.com,2013-06-20 04:32:00,
2013-06-20 00:47:00,49.6,47.7,30.24,North,0,0.0,-999.0,93,-99.99,,,0.00,Acu-Link.com,2013-06-20 04:47:00,
2013-06-20 01:02:00,49.3,48.7,30.23,North,0,0.0,-999.0,98,-99.99,,,0.00,Acu-Link.com,2013-06-20 05:02:00,
2013-06-20 01:17:00,48.2,47.7,30.23,North,0,0.0,-999.0,98,-99.99,,,0.00,Acu-Link.com,2013-06-20 05:17:00,
2013-06-20 01:32:00,48.2,47.7,30.24,North,0,0.0,-999.0,98,-99.99,,,0.00,Acu-Link.com,2013-06-20 05:32:00,
2013-06-20 01:48:00,47.8,47.3,30.23,North,0,0.0,-999.0,98,-99.99,,,0.00,Acu-Link.com,2013-06-20 05:48:00,
2013-06-20 02:03:00,47.5,46.9,30.23,North,0,0.0,-999.0,98,-99.99,,,0.00,Acu-Link.com,2013-06-20 06:03:00,
2013-06-20 02:18:00,47.3,46.8,30.24,North,0,0.0,-999.0,98,-99.99,,,0.00,Acu-Link.com,2013-06-20 06:18:00,
2013-06-20 02:33:00,47.3,46.8,30.24,North,0,0.0,-999.0,98,-99.99,,,0.00,Acu-Link.com,2013-06-20 06:33:00,
2013-06-20 02:48:00,47.1,46.6,30.24,North,0,0.0,-999.0,98,-99.99,,,0.00,Acu-Link.com,2013-06-20 06:48:00,
2013-06-20 03:04:00,46.6,46.0,30.24,North,0,0.0,-999.0,98,-99.99,,,0.00,Acu-Link.com,2013-06-20 07:04:00,
2013-06-20 03:19:00,46.6,46.0,30.24,North,0,0.0,-999.0,98,-99.99,,,0.00,Acu-Link.com,2013-06-20 07:19:00,
2013-06-20 03:34:00,46.4,45.9,30.24,North,0,0.0,-999.0,98,-99.99,,,0.00,Acu-Link.com,2013-06-20 07:34:00,
2013-06-20 03:49:00,46.4,45.9,30.24,North,0,0.0,-999.0,98,-99.99,,,0.00,Acu-Link.com,2013-06-20 07:49:00,
2013-06-20 04:05:00,46.0,45.5,30.25,North,0,0.0,-999.0,98,-99.99,,,0.00,Acu-Link.com,2013-06-20 08:05:00,
2013-06-20 04:20:00,46.0,45.5,30.25,North,0,0.0,-999.0,98,-99.99,,,0.00,Acu-Link.com,2013-06-20 08:20:00,
2013-06-20 04:35:00,45.9,45.3,30.25,North,0,0.0,-999.0,98,-99.99,,,0.00,Acu-Link.com,2013-06-20 08:35:00,
2013-06-20 04:50:00,45.5,45.0,30.25,North,0,0.0,-999.0,98,-99.99,,,0.00,Acu-Link.com,2013-06-20 08:50:00,
2013-06-20 05:05:00,45.5,45.0,30.25,North,0,0.0,-999.0,98,-99.99,,,0.00,Acu-Link.com,2013-06-20 09:05:00,
2013-06-20 05:20:00,45.1,44.6,30.26,North,0,0.0,-999.0,98,-99.99,,,0.00,Acu-Link.com,2013-06-20 09:20:00,
2013-06-20 05:35:00,45.1,44.6,30.26,North,0,0.0,-999.0,98,-99.99,,,0.00,Acu-Link.com,2013-06-20 09:35:00,
2013-06-20 05:50:00,46.0,45.5,30.26,North,0,0.0,-999.0,98,-99.99,,,0.00,Acu-Link.com,2013-06-20 09:50:00,
2013-06-20 06:06:00,46.2,45.7,30.26,North,0,0.0,-999.0,98,-99.99,,,0.00,Acu-Link.com,2013-06-20 10:06:00,
2013-06-20 06:21:00,46.8,46.2,30.27,North,0,0.0,-999.0,98,-99.99,,,0.00,Acu-Link.com,2013-06-20 10:21:00,
2013-06-20 06:36:00,46.8,46.2,30.27,North,0,0.0,-999.0,98,-99.99,,,0.00,Acu-Link.com,2013-06-20 10:36:00,
2013-06-20 06:51:00,47.5,46.9,30.28,North,0,0.0,-999.0,98,-99.99,,,0.00,Acu-Link.com,2013-06-20 10:51:00,
2013-06-20 07:06:00,48.6,48.0,30.27,North,0,0.0,-999.0,98,-99.99,,,0.00,Acu-Link.com,2013-06-20 11:06:00,
2013-06-20 07:22:00,50.2,49.6,30.27,North,0,0.0,-999.0,98,-99.99,,,0.00,Acu-Link.com,2013-06-20 11:22:00,
2013-06-20 07:37:00,51.8,51.3,30.28,North,0,0.0,-999.0,98,-99.99,,,0.00,Acu-Link.com,2013-06-20 11:37:00,
2013-06-20 07:52:00,53.2,52.7,30.29,North,0,0.0,-999.0,98,-99.99,,,0.00,Acu-Link.com,2013-06-20 11:52:00,
2013-06-20 08:07:00,55.0,51.9,30.29,North,0,0.0,-999.0,89,-99.99,,,0.00,Acu-Link.com,2013-06-20 12:07:00,
2013-06-20 08:23:00,56.8,52.4,30.29,North,0,0.0,-999.0,85,-99.99,,,0.00,Acu-Link.com,2013-06-20 12:23:00,
2013-06-20 08:38:00,58.8,51.3,30.29,North,0,0.0,-999.0,76,-99.99,,,0.00,Acu-Link.com,2013-06-20 12:38:00,
2013-06-20 08:53:00,60.1,50.6,30.28,North,0,0.0,-999.0,71,-99.99,,,0.00,Acu-Link.com,2013-06-20 12:53:00,
2013-06-20 09:08:00,61.7,49.8,30.28,South,180,1.6,-999.0,65,-99.99,,,0.00,Acu-Link.com,2013-06-20 13:08:00,
2013-06-20 09:23:00,63.9,47.4,30.29,West,270,0.0,-999.0,55,-99.99,,,0.00,Acu-Link.com,2013-06-20 13:23:00,
2013-06-20 09:39:00,63.7,44.2,30.29,SSW,202,2.2,-999.0,49,-99.99,,,0.00,Acu-Link.com,2013-06-20 13:39:00,
2013-06-20 09:54:00,65.7,46.5,30.29,SW,225,2.2,-999.0,50,-99.99,,,0.00,Acu-Link.com,2013-06-20 13:54:00,
2013-06-20 10:09:00,65.5,45.3,30.28,South,180,1.1,-999.0,48,-99.99,,,0.00,Acu-Link.com,2013-06-20 14:09:00,
2013-06-20 10:24:00,65.8,45.6,30.28,SW,225,1.6,-999.0,48,-99.99,,,0.00,Acu-Link.com,2013-06-20 14:24:00,
2013-06-20 10:39:00,68.0,47.0,30.27,SSW,202,2.2,-999.0,47,-99.99,,,0.00,Acu-Link.com,2013-06-20 14:39:00,
2013-06-20 10:54:00,68.2,46.6,30.28,SW,225,2.7,-999.0,46,-99.99,,,0.00,Acu-Link.com,2013-06-20 14:54:00,
2013-06-20 11:10:00,69.1,46.8,30.28,WSW,247,2.7,-999.0,45,-99.99,,,0.00,Acu-Link.com,2013-06-20 15:10:00,
2013-06-20 11:25:00,68.9,48.4,30.28,SSE,157,0.0,-999.0,48,-99.99,,,0.00,Acu-Link.com,2013-06-20 15:25:00,
2013-06-20 11:40:00,68.5,48.6,30.27,WSW,247,2.7,-999.0,49,-99.99,,,0.00,Acu-Link.com,2013-06-20 15:40:00,
2013-06-20 11:55:00,68.9,50.0,30.28,South,180,2.7,-999.0,51,-99.99,,,0.00,Acu-Link.com,2013-06-20 15:55:00,
2013-06-20 12:10:00,69.6,49.1,30.28,WSW,247,3.1,-999.0,48,-99.99,,,0.00,Acu-Link.com,2013-06-20 16:10:00,
2013-06-20 12:26:00,69.4,48.9,30.28,West,270,1.1,-999.0,48,-99.99,,,0.00,Acu-Link.com,2013-06-20 16:26:00,
2013-06-20 12:41:00,68.9,49.5,30.28,SW,225,1.6,-999.0,50,-99.99,,,0.00,Acu-Link.com,2013-06-20 16:41:00,
2013-06-20 12:56:00,70.0,45.2,30.27,SSW,202,3.8,-999.0,41,-99.99,,,0.00,Acu-Link.com,2013-06-20 16:56:00,
2013-06-20 13:11:00,70.7,46.5,30.26,SW,225,0.0,-999.0,42,-99.99,,,0.00,Acu-Link.com,2013-06-20 17:11:00,
2013-06-20 13:26:00,71.4,45.8,30.26,SW,225,1.6,-999.0,40,-99.99,,,0.00,Acu-Link.com,2013-06-20 17:26:00,
2013-06-20 13:42:00,71.1,45.5,30.26,SSW,202,1.6,-999.0,40,-99.99,,,0.00,Acu-Link.com,2013-06-20 17:42:00,
2013-06-20 13:57:00,72.1,45.8,30.26,South,180,1.1,-999.0,39,-99.99,,,0.00,Acu-Link.com,2013-06-20 17:57:00,
2013-06-20 14:12:00,72.0,46.3,30.26,WSW,247,2.7,-999.0,40,-99.99,,,0.00,Acu-Link.com,2013-06-20 18:12:00,
2013-06-20 14:27:00,74.1,46.2,30.26,West,270,1.1,-999.0,37,-99.99,,,0.00,Acu-Link.com,2013-06-20 18:27:00,
2013-06-20 14:42:00,72.3,45.3,30.25,WSW,247,2.7,-999.0,38,-99.99,,,0.00,Acu-Link.com,2013-06-20 18:42:00,
2013-06-20 14:58:00,72.1,45.1,30.25,SSW,202,4.7,-999.0,38,-99.99,,,0.00,Acu-Link.com,2013-06-20 18:58:00,
2013-06-20 15:13:00,72.0,46.3,30.25,SSW,202,0.0,-999.0,40,-99.99,,,0.00,Acu-Link.com,2013-06-20 19:13:00,
2013-06-20 15:28:00,71.6,43.9,30.25,WSW,247,0.0,-999.0,37,-99.99,,,0.00,Acu-Link.com,2013-06-20 19:28:00,
2013-06-20 15:43:00,71.2,42.9,30.25,SSW,202,3.1,-999.0,36,-99.99,,,0.00,Acu-Link.com,2013-06-20 19:43:00,
2013-06-20 15:58:00,71.1,44.2,30.25,SW,225,3.1,-999.0,38,-99.99,,,0.00,Acu-Link.com,2013-06-20 19:58:00,
2013-06-20 16:14:00,70.9,44.7,30.25,NE,45,2.2,-999.0,39,-99.99,,,0.00,Acu-Link.com,2013-06-20 20:14:00,
2013-06-20 16:29:00,70.3,44.2,30.25,SW,225,2.7,-999.0,39,-99.99,,,0.00,Acu-Link.com,2013-06-20 20:29:00,
2013-06-20 16:44:00,70.0,43.9,30.24,SSW,202,2.2,-999.0,39,-99.99,,,0.00,Acu-Link.com,2013-06-20 20:44:00,
2013-06-20 16:59:00,70.2,44.7,30.24,SSW,202,2.2,-999.0,40,-99.99,,,0.00,Acu-Link.com,2013-06-20 20:59:00,
2013-06-20 17:14:00,70.0,43.9,30.24,North,0,0.0,-999.0,39,-99.99,,,0.00,Acu-Link.com,2013-06-20 21:14:00,
2013-06-20 17:29:00,69.6,45.5,30.24,West,270,2.2,-999.0,42,-99.99,,,0.00,Acu-Link.com,2013-06-20 21:29:00,
2013-06-20 17:45:00,69.3,45.8,30.24,NNW,337,0.0,-999.0,43,-99.99,,,0.00,Acu-Link.com,2013-06-20 21:45:00,
2013-06-20 18:00:00,68.7,43.4,30.24,SSE,157,0.0,-999.0,40,-99.99,,,0.00,Acu-Link.com,2013-06-20 22:00:00,
2013-06-20 18:15:00,68.7,45.3,30.24,SW,225,0.0,-999.0,43,-99.99,,,0.00,Acu-Link.com,2013-06-20 22:15:00,
2013-06-20 18:30:00,68.4,45.0,30.23,SW,225,0.0,-999.0,43,-99.99,,,0.00,Acu-Link.com,2013-06-20 22:30:00,
2013-06-20 18:46:00,67.5,45.9,30.23,SW,225,0.0,-999.0,46,-99.99,,,0.00,Acu-Link.com,2013-06-20 22:46:00,
2013-06-20 19:01:00,66.7,47.5,30.23,North,0,0.0,-999.0,50,-99.99,,,0.00,Acu-Link.com,2013-06-20 23:01:00,
2013-06-20 19:16:00,66.4,47.2,30.24,West,270,0.0,-999.0,50,-99.99,,,0.00,Acu-Link.com,2013-06-20 23:16:00,
2013-06-20 19:31:00,65.7,47.0,30.24,NNW,337,0.0,-999.0,51,-99.99,,,0.00,Acu-Link.com,2013-06-20 23:31:00,
2013-06-20 19:46:00,64.8,46.2,30.24,North,0,0.0,-999.0,51,-99.99,,,0.00,Acu-Link.com,2013-06-20 23:46:00,
2013-06-20 20:02:00,64.0,46.1,30.23,North,0,0.0,-999.0,52,-99.99,,,0.00,Acu-Link.com,2013-06-21 00:02:00,
2013-06-20 20:17:00,63.0,46.1,30.24,North,0,0.0,-999.0,54,-99.99,,,0.00,Acu-Link.com,2013-06-21 00:17:00,
2013-06-20 20:32:00,62.4,47.0,30.23,North,0,0.0,-999.0,57,-99.99,,,0.00,Acu-Link.com,2013-06-21 00:32:00,
2013-06-20 20:47:00,61.7,46.8,30.23,North,0,0.0,-999.0,58,-99.99,,,0.00,Acu-Link.com,2013-06-21 00:47:00,
2013-06-20 21:02:00,60.8,46.8,30.23,North,0,0.0,-999.0,60,-99.99,,,0.00,Acu-Link.com,2013-06-21 01:02:00,
2013-06-20 21:18:00,60.3,47.2,30.23,North,0,0.0,-999.0,62,-99.99,,,0.00,Acu-Link.com,2013-06-21 01:18:00,
2013-06-20 21:33:00,59.2,49.0,30.24,North,0,0.0,-999.0,69,-99.99,,,0.00,Acu-Link.com,2013-06-21 01:33:00,
2013-06-20 21:48:00,58.1,50.6,30.24,North,0,0.0,-999.0,76,-99.99,,,0.00,Acu-Link.com,2013-06-21 01:48:00,
2013-06-20 22:03:00,57.6,51.8,30.25,North,0,0.0,-999.0,81,-99.99,,,0.00,Acu-Link.com,2013-06-21 02:03:00,
2013-06-20 22:18:00,57.0,50.9,30.25,North,0,0.0,-999.0,80,-99.99,,,0.00,Acu-Link.com,2013-06-21 02:18:00,
2013-06-20 22:34:00,56.5,50.0,30.25,North,0,0.0,-999.0,79,-99.99,,,0.00,Acu-Link.com,2013-06-21 02:34:00,
2013-06-20 22:49:00,55.8,50.0,30.25,North,0,0.0,-999.0,81,-99.99,,,0.00,Acu-Link.com,2013-06-21 02:49:00,
2013-06-20 23:04:00,55.6,53.6,30.25,North,0,0.0,-999.0,93,-99.99,,,0.00,Acu-Link.com,2013-06-21 03:04:00,
2013-06-20 23:19:00,55.2,49.8,30.25,North,0,0.0,-999.0,82,-99.99,,,0.00,Acu-Link.com,2013-06-21 03:19:00,
2013-06-20 23:34:00,54.5,53.9,30.25,North,0,0.0,-999.0,98,-99.99,,,0.00,Acu-Link.com,2013-06-21 03:34:00,
2013-06-20 23:50:00,54.3,53.8,30.25,North,0,0.0,-999.0,98,-99.99,,,0.00,Acu-Link.com,2013-06-21 03:50:00,